DKEKS EDXW-EDDH

Flight info

Callsign DKEKS
Flight time N/A
Altitude
Route
Aircraft A33E

Departure

Time 2026-04-22 18:58
Airport Westerland Sylt Airport (EDXW)

Arrival

Time N/A
Airport Hamburg Helmut Schmidt Airport (EDDH)
Time Latitude Longitude Altitude Speed Heading
2026-04-22 18:58 54.71589 8.79134 5305 ft 127 kts 142°
2026-04-22 18:58 54.70878 8.80011 5468 ft 125 kts 138°
2026-04-22 18:59 54.70152 8.80912 5527 ft 132 kts 140°
2026-04-22 18:59 54.69383 8.81836 5648 ft 135 kts 143°
2026-04-22 18:59 54.68584 8.82644 5780 ft 132 kts 147°
2026-04-22 18:59 54.67798 8.83410 5916 ft 131 kts 147°
2026-04-22 19:00 54.67002 8.84139 6059 ft 129 kts 148°
2026-04-22 19:00 54.66191 8.84811 6203 ft 130 kts 151°
2026-04-22 19:00 54.65359 8.85424 6348 ft 131 kts 153°
2026-04-22 19:00 54.64522 8.86060 6491 ft 132 kts 152°
2026-04-22 19:01 54.63704 8.86767 6613 ft 131 kts 147°
2026-04-22 19:01 54.62910 8.87555 6696 ft 133 kts 147°
2026-04-22 19:01 54.62111 8.88359 6802 ft 133 kts 143°
2026-04-22 19:01 54.61338 8.89165 6986 ft 129 kts 144°
2026-04-22 19:02 54.60514 8.90014 6973 ft 139 kts 142°
2026-04-22 19:02 54.59777 8.90915 7174 ft 129 kts 138°
2026-04-22 19:02 54.59049 8.91874 7233 ft 133 kts 137°
2026-04-22 19:02 54.58283 8.92795 7299 ft 136 kts 143°
2026-04-22 19:03 54.57484 8.93646 7427 ft 133 kts 144°
2026-04-22 19:03 54.56678 8.94466 7508 ft 138 kts 144°
2026-04-22 19:03 54.55877 8.95332 7600 ft 135 kts 145°
2026-04-22 19:03 54.55062 8.96165 7638 ft 137 kts 147°
2026-04-22 19:04 54.54190 8.96914 7625 ft 143 kts 155°
2026-04-22 19:04 54.53259 8.97434 7758 ft 138 kts 162°
2026-04-22 19:04 54.52346 8.97831 7838 ft 140 kts 166°
2026-04-22 19:04 54.51393 8.98185 7895 ft 140 kts 164°
2026-04-22 19:05 54.50433 8.98537 7929 ft 143 kts 169°
2026-04-22 19:05 54.49472 8.98928 7997 ft 141 kts 162°
2026-04-22 19:05 54.48533 8.99412 8069 ft 141 kts 160°
2026-04-22 19:05 54.47604 9.00022 8066 ft 145 kts 153°
2026-04-22 19:06 54.46690 9.00709 8121 ft 143 kts 153°
2026-04-22 19:06 54.45770 9.01404 8136 ft 145 kts 153°
2026-04-22 19:06 54.44869 9.02152 8177 ft 143 kts 148°
2026-04-22 19:07 54.43263 9.03928 8346 ft 138 kts 142°
2026-04-22 19:07 54.42464 9.04835 8414 ft 138 kts 142°
2026-04-22 19:07 54.41660 9.05718 8484 ft 135 kts 142°
2026-04-22 19:07 54.40881 9.06594 8521 ft 137 kts 146°
2026-04-22 19:08 54.40040 9.07446 8508 ft 142 kts 148°
2026-04-22 19:08 54.39155 9.08211 8559 ft 141 kts 151°
2026-04-22 19:08 54.38306 9.08966 8695 ft 135 kts 149°
2026-04-22 19:08 54.37483 9.09743 8746 ft 136 kts 147°
2026-04-22 19:09 54.36657 9.10556 8808 ft 137 kts 146°
2026-04-22 19:09 54.35859 9.11398 8886 ft 135 kts 145°
2026-04-22 19:09 54.35079 9.12279 8958 ft 136 kts 142°
2026-04-22 19:09 54.34299 9.13207 8998 ft 136 kts 140°
2026-04-22 19:10 54.33554 9.14168 9127 ft 132 kts 139°
2026-04-22 19:10 54.32829 9.15112 9249 ft 130 kts 137°
2026-04-22 19:10 54.32105 9.16007 9418 ft 127 kts 142°
2026-04-22 19:10 54.31357 9.16776 9564 ft 126 kts 146°
2026-04-22 19:11 54.30587 9.17480 9671 ft 127 kts 147°
2026-04-22 19:11 54.29825 9.18143 9837 ft 123 kts 149°
2026-04-22 19:11 54.29053 9.18777 9996 ft 121 kts 147°
2026-04-22 19:11 54.28327 9.19457 10197 ft 119 kts 144°
2026-04-22 19:12 54.27632 9.20196 10369 ft 117 kts 142°
2026-04-22 19:12 54.26936 9.20945 10487 ft 119 kts 143°
2026-04-22 19:12 54.26187 9.21620 10553 ft 124 kts 148°
2026-04-22 19:12 54.25421 9.22234 10701 ft 121 kts 150°
2026-04-22 19:13 54.24678 9.22912 10828 ft 122 kts 144°
2026-04-22 19:13 54.23948 9.23705 10847 ft 128 kts 141°
2026-04-22 19:13 54.23198 9.24530 10948 ft 129 kts 142°
2026-04-22 19:13 54.22438 9.25312 11064 ft 127 kts 144°
2026-04-22 19:14 54.21668 9.26034 11194 ft 126 kts 148°
2026-04-22 19:14 54.20883 9.26712 11258 ft 125 kts 147°
2026-04-22 19:14 54.20061 9.27405 11042 ft 140 kts 148°
2026-04-22 19:14 54.19209 9.28218 10971 ft 139 kts 144°
2026-04-22 19:15 54.18667 9.28812 10898 ft 140 kts 141°
2026-04-22 19:15 54.17655 9.30149 10787 ft 137 kts 137°
2026-04-22 19:15 54.16882 9.31148 10625 ft 145 kts 136°
2026-04-22 19:15 54.16036 9.32230 10428 ft 155 kts 140°
2026-04-22 19:16 54.15138 9.33285 10294 ft 158 kts 142°
2026-04-22 19:16 54.14220 9.34334 10240 ft 156 kts 143°
2026-04-22 19:16 54.13308 9.35344 10108 ft 158 kts 143°
2026-04-22 19:16 54.12360 9.36328 9981 ft 161 kts 145°
2026-04-22 19:17 54.11386 9.37252 9883 ft 161 kts 148°
2026-04-22 19:17 54.10405 9.38141 9777 ft 160 kts 149°
2026-04-22 19:17 54.09416 9.38962 9736 ft 156 kts 151°
2026-04-22 19:17 54.08390 9.39699 9525 ft 164 kts 155°
2026-04-22 19:18 54.07332 9.40411 9385 ft 165 kts 154°
2026-04-22 19:18 54.06292 9.41177 9342 ft 159 kts 152°
2026-04-22 19:18 54.05264 9.41947 9179 ft 164 kts 153°
2026-04-22 19:18 54.04241 9.42730 9108 ft 160 kts 151°
2026-04-22 19:19 54.03245 9.43596 8977 ft 161 kts 148°
2026-04-22 19:19 54.02265 9.44523 8940 ft 156 kts 148°
2026-04-22 19:19 54.01559 9.45137 9786 ft 25 kts 205°
2026-04-22 19:19 54.01128 9.45431 8801 ft 141 kts 153°
2026-04-22 19:20 54.00898 9.45528 8929 ft 53 kts 146°
2026-04-22 19:20 54.00138 9.46519 8452 ft 146 kts 139°
2026-04-22 19:20 53.99818 9.46687 8670 ft 27 kts 313°
2026-04-22 19:20 54.00391 9.45938 8294 ft 110 kts 353°
2026-04-22 19:21 54.00482 9.46690 8168 ft 131 kts 146°
2026-04-22 19:21 53.99545 9.47465 7747 ft 160 kts 154°
2026-04-22 19:21 53.98532 9.48238 7610 ft 160 kts 151°
2026-04-22 19:21 53.97541 9.49077 7570 ft 156 kts 150°
2026-04-22 19:22 53.96593 9.49984 7462 ft 156 kts 144°
2026-04-22 19:22 53.95985 9.50654 8282 ft 23 kts 111°
2026-04-22 19:22 53.95875 9.49981 7496 ft 122 kts 250°
2026-04-22 19:22 53.95088 9.50424 7154 ft 147 kts 135°
2026-04-22 19:23 53.94280 9.51600 6758 ft 159 kts 155°
2026-04-22 19:23 53.93309 9.52500 6378 ft 158 kts 155°
2026-04-22 19:23 53.92942 9.54046 5949 ft 148 kts 73°
2026-04-22 19:23 53.93667 9.55125 5610 ft 139 kts 21°
2026-04-22 19:24 53.94503 9.54508 5231 ft 145 kts 307°
2026-04-22 19:24 53.94415 9.52812 4831 ft 159 kts 250°
2026-04-22 19:24 53.93503 9.51763 4465 ft 167 kts 199°
2026-04-22 19:24 53.92440 9.52104 4001 ft 127 kts 163°
2026-04-22 19:25 53.91874 9.53332 2733 ft 164 kts 126°
2026-04-22 19:25 53.91260 9.54885 2690 ft 152 kts 118°
2026-04-22 19:25 53.90706 9.56336 2708 ft 143 kts 123°
2026-04-22 19:25 53.90031 9.57526 2642 ft 139 kts 140°
2026-04-22 19:26 53.89267 9.58511 2512 ft 140 kts 143°
2026-04-22 19:26 53.88507 9.59461 2650 ft 124 kts 140°
2026-04-22 19:26 53.87904 9.60301 2775 ft 105 kts 137°
2026-04-22 19:26 53.87359 9.61073 2810 ft 101 kts 143°
2026-04-22 19:27 53.86804 9.61799 2893 ft 102 kts 141°
2026-04-22 19:27 53.86215 9.62519 2709 ft 115 kts 146°
2026-04-22 19:27 53.85487 9.63325 2404 ft 135 kts 146°
2026-04-22 19:27 53.84658 9.64211 2235 ft 146 kts 147°
2026-04-22 19:28 53.83854 9.65098 2348 ft 135 kts 148°
2026-04-22 19:28 53.83055 9.65913 2287 ft 137 kts 148°
2026-04-22 19:28 53.82194 9.66768 2034 ft 149 kts 150°
2026-04-22 19:28 53.81257 9.67671 1871 ft 162 kts 151°
2026-04-22 19:29 53.80256 9.68614 1661 ft 168 kts 154°
2026-04-22 19:29 53.79243 9.69498 1734 ft 154 kts 153°
2026-04-22 19:29 53.78365 9.70319 1945 ft 131 kts 150°
2026-04-22 19:29 53.77586 9.71055 1907 ft 127 kts 151°
2026-04-22 19:30 53.77103 9.71546 1968 ft 119 kts 146°
2026-04-22 19:30 53.76146 9.72494 1902 ft 123 kts 150°
2026-04-22 19:30 53.75358 9.73163 1730 ft 132 kts 155°
2026-04-22 19:30 53.74519 9.73862 1759 ft 132 kts 152°
2026-04-22 19:31 53.73831 9.74750 1787 ft 121 kts 141°
2026-04-22 19:31 53.73167 9.75542 1766 ft 117 kts 147°
2026-04-22 19:31 53.72418 9.76145 1765 ft 121 kts 160°
2026-04-22 19:31 53.71613 9.76635 1799 ft 123 kts 158°
2026-04-22 19:32 53.70836 9.77122 1973 ft 115 kts 161°
2026-04-22 19:32 53.70090 9.77559 1884 ft 114 kts 159°
2026-04-22 19:32 53.69369 9.78147 1742 ft 117 kts 155°
2026-04-22 19:32 53.68621 9.78727 1671 ft 118 kts 160°
2026-04-22 19:33 53.67844 9.79052 1673 ft 111 kts 180°
2026-04-22 19:33 53.67249 9.78616 1839 ft 83 kts 241°
2026-04-22 19:33 53.67341 9.77864 1869 ft 72 kts 334°
2026-04-22 19:33 53.67745 9.78438 1729 ft 105 kts 77°
2026-04-22 19:34 53.67393 9.79703 1596 ft 126 kts 129°
2026-04-22 19:34 53.66789 9.80713 1700 ft 118 kts 138°
2026-04-22 19:34 53.66105 9.81500 1526 ft 126 kts 147°
2026-04-22 19:34 53.65313 9.82315 1342 ft 139 kts 148°
2026-04-22 19:35 53.64550 9.83258 1297 ft 133 kts 140°
2026-04-22 19:35 53.63887 9.84324 1298 ft 128 kts 134°
2026-04-22 19:35 53.63514 9.85066 1328 ft 122 kts 125°
2026-04-22 19:35 53.62925 9.86576 1378 ft 113 kts 119°
2026-04-22 19:36 53.62518 9.87710 1343 ft 115 kts 117°
2026-04-22 19:36 53.62131 9.88893 1390 ft 114 kts 115°
2026-04-22 19:36 53.61749 9.90081 795 ft 152 kts 117°
2026-04-22 19:36 53.61190 9.91668 882 ft 150 kts 123°
2026-04-22 19:37 53.60617 9.93076 883 ft 143 kts 123°
2026-04-22 19:37 53.60221 9.94549 886 ft 134 kts 100°
2026-04-22 19:37 53.60250 9.96020 949 ft 119 kts 78°
2026-04-22 19:37 53.60485 9.97319 933 ft 117 kts 61°
2026-04-22 19:38 53.60884 9.98526 847 ft 95 kts 50°
2026-04-22 19:38 53.61247 9.99372 794 ft 87 kts 45°
2026-04-22 19:38 53.61611 10.00214 772 ft 92 kts 52°
2026-04-22 19:38 53.61991 10.01027 779 ft 84 kts 48°
2026-04-22 19:39 53.62451 10.01523 641 ft 81 kts
2026-04-22 19:39 53.62985 10.01660 595 ft 77 kts 346°
2026-04-22 19:39 53.63488 10.01461 490 ft 60 kts 333°
2026-04-22 19:39 53.63774 10.00889 235 ft 79 kts 292°
2026-04-22 19:40 53.63572 9.99911 74 ft 109 kts 236°
2026-04-22 19:40 53.63061 9.98882 59 ft 118 kts 236°
2026-04-22 19:40 53.62531 9.97796 65 ft 120 kts 234°
2026-04-22 19:40 53.62015 9.96782 226 ft 113 kts 234°
2026-04-22 19:41 53.61557 9.95802 306 ft 88 kts 240°
2026-04-22 19:41 53.61250 9.95107 520 ft 63 kts 238°
2026-04-22 19:41 53.60948 9.94558 516 ft 67 kts 237°
2026-04-22 19:41 53.60663 9.93903 515 ft 73 kts 259°
2026-04-22 19:42 53.60586 9.92968 601 ft 88 kts 261°
2026-04-22 19:42 53.60300 9.91869 523 ft 115 kts 245°
2026-04-22 19:42 53.59882 9.90671 534 ft 123 kts 246°
2026-04-22 19:42 53.59487 9.89369 508 ft 123 kts 252°
2026-04-22 19:43 53.59005 9.86675 669 ft 120 kts 263°
2026-04-22 19:43 53.58842 9.85314 755 ft 117 kts 262°
2026-04-22 19:43 53.58685 9.83984 824 ft 119 kts 262°
2026-04-22 19:44 53.58492 9.82674 989 ft 112 kts 256°
2026-04-22 19:44 53.58248 9.81420 1071 ft 114 kts 259°
2026-04-22 19:44 53.58017 9.80130 1176 ft 113 kts 259°
2026-04-22 19:44 53.57801 9.78846 1285 ft 116 kts 259°
2026-04-22 19:45 53.57590 9.77541 1422 ft 116 kts 258°
2026-04-22 19:45 53.57368 9.76197 1400 ft 121 kts 255°
2026-04-22 19:45 53.57120 9.74827 1426 ft 123 kts 259°
2026-04-22 19:45 53.56942 9.73467 1498 ft 119 kts 261°
2026-04-22 19:46 53.56771 9.72093 1503 ft 124 kts 261°
2026-04-22 19:46 53.56576 9.70684 1558 ft 124 kts 259°
2026-04-22 19:46 53.56326 9.69287 1611 ft 124 kts 254°
2026-04-22 19:46 53.55973 9.67958 1700 ft 124 kts 249°
2026-04-22 19:47 53.55552 9.66706 1806 ft 123 kts 242°
2026-04-22 19:47 53.55029 9.65554 1887 ft 124 kts 235°
2026-04-22 19:47 53.54656 9.64808 1894 ft 127 kts 231°
2026-04-22 19:47 53.53809 9.63349 1875 ft 132 kts 230°
2026-04-22 19:48 53.53176 9.62225 1878 ft 134 kts 232°
2026-04-22 19:48 53.52548 9.61104 1892 ft 133 kts 229°
2026-04-22 19:48 53.51806 9.60154 1955 ft 135 kts 214°
2026-04-22 19:48 53.50994 9.59396 2035 ft 133 kts 211°
2026-04-22 19:49 53.50168 9.58689 2101 ft 132 kts 210°
2026-04-22 19:49 53.49330 9.58033 2165 ft 131 kts 206°
2026-04-22 19:49 53.48450 9.57552 2197 ft 134 kts 198°
2026-04-22 19:49 53.47548 9.57222 2327 ft 132 kts 195°
2026-04-22 19:50 53.46630 9.57004 2486 ft 133 kts 188°
2026-04-22 19:50 53.45711 9.56875 2645 ft 133 kts 188°
2026-04-22 19:50 53.44781 9.56713 2681 ft 138 kts 189°
2026-04-22 19:50 53.43857 9.56578 2764 ft 136 kts 188°
2026-04-22 19:51 53.42867 9.56494 2649 ft 149 kts 185°
2026-04-22 19:51 53.41801 9.56439 2444 ft 162 kts 183°
2026-04-22 19:51 53.40669 9.56479 2344 ft 161 kts 180°
2026-04-22 19:51 53.39586 9.56580 2436 ft 148 kts 177°
2026-04-22 19:52 53.38592 9.56714 2519 ft 142 kts 175°
2026-04-22 19:52 53.37614 9.56912 2536 ft 143 kts 174°
2026-04-22 19:52 53.36629 9.57203 2535 ft 144 kts 172°
2026-04-22 19:52 53.35664 9.57576 2580 ft 143 kts 168°
2026-04-22 19:53 53.34689 9.57932 2583 ft 143 kts 168°
2026-04-22 19:53 53.33720 9.58285 2577 ft 146 kts 171°
2026-04-22 19:53 53.32736 9.58421 2590 ft 139 kts 193°
2026-04-22 19:53 53.31922 9.57686 2653 ft 134 kts 227°
2026-04-22 19:54 53.31277 9.56548 2655 ft 138 kts 231°
2026-04-22 19:54 53.30609 9.55390 2610 ft 140 kts 234°
2026-04-22 19:54 53.30058 9.53968 2431 ft 150 kts 243°
2026-04-22 19:54 53.29602 9.52549 2549 ft 133 kts 251°
2026-04-22 19:55 53.29346 9.51145 2743 ft 126 kts 262°
2026-04-22 19:55 53.29116 9.49779 2939 ft 123 kts 251°
2026-04-22 19:55 53.28672 9.48552 3053 ft 125 kts 238°
2026-04-22 19:55 53.28109 9.47411 3104 ft 126 kts 232°
2026-04-22 19:56 53.27492 9.46366 3219 ft 126 kts 229°
2026-04-22 19:56 53.26846 9.45323 3366 ft 131 kts 229°
2026-04-22 19:56 53.26157 9.44260 3452 ft 136 kts 226°
2026-04-22 19:56 53.25515 9.43105 3487 ft 135 kts 236°
2026-04-22 19:57 53.24962 9.41918 3638 ft 126 kts 238°
2026-04-22 19:57 53.24572 9.40650 3850 ft 123 kts 252°
2026-04-22 19:57 53.24294 9.39297 3968 ft 126 kts 257°
2026-04-22 19:57 53.24024 9.37857 3965 ft 133 kts 254°
2026-04-22 19:58 53.23685 9.36398 3932 ft 136 kts 252°
2026-04-22 19:58 53.23295 9.34921 3948 ft 142 kts 244°
2026-04-22 19:58 53.22609 9.33712 3936 ft 149 kts 218°
2026-04-22 19:58 53.21786 9.32603 3812 ft 151 kts 223°
2026-04-22 19:59 53.21041 9.31439 3893 ft 144 kts 227°
2026-04-22 20:00 53.16280 9.24631 3255 ft 159 kts 214°
2026-04-22 20:00 53.15324 9.23793 3232 ft 154 kts 208°
2026-04-22 20:01 53.14310 9.23051 3089 ft 161 kts 206°
2026-04-22 20:01 53.13306 9.22248 2927 ft 159 kts 209°
2026-04-22 20:01 53.12351 9.21441 2869 ft 151 kts 212°
2026-04-22 20:01 53.11424 9.20622 2905 ft 150 kts 211°
2026-04-22 20:02 53.10519 9.19833 2788 ft 151 kts 212°
2026-04-22 20:02 53.09620 9.18891 2664 ft 153 kts 220°
2026-04-22 20:02 53.08856 9.17696 2488 ft 143 kts 227°
2026-04-22 20:02 53.08170 9.16304 1992 ft 155 kts 239°
2026-04-22 20:03 53.07633 9.14882 1733 ft 147 kts 242°
2026-04-22 20:03 53.07144 9.13382 1601 ft 149 kts 248°
2026-04-22 20:03 53.06669 9.11817 1404 ft 152 kts 246°
2026-04-22 20:03 53.06202 9.10230 1272 ft 155 kts 249°
2026-04-22 20:04 53.05847 9.08594 1225 ft 148 kts 257°
2026-04-22 20:04 53.05623 9.06965 1187 ft 144 kts 259°
2026-04-22 20:04 53.05429 9.05330 1052 ft 145 kts 263°
2026-04-22 20:04 53.05294 9.03670 907 ft 145 kts 268°
2026-04-22 20:05 53.05244 9.02015 862 ft 140 kts 271°
2026-04-22 20:05 53.05251 9.00446 857 ft 133 kts 274°
2026-04-22 20:05 53.05241 8.98903 755 ft 130 kts 274°
2026-04-22 20:05 53.05199 8.97491 829 ft 115 kts 269°
2026-04-22 20:06 53.05075 8.96198 796 ft 109 kts 265°
2026-04-22 20:06 53.04922 8.95131 945 ft 88 kts 262°
2026-04-22 20:06 53.04895 8.94178 1035 ft 79 kts 277°
2026-04-22 20:06 53.04929 8.93255 1023 ft 82 kts 279°
2026-04-22 20:07 53.04953 8.92290 1013 ft 84 kts 276°
2026-04-22 20:07 53.04965 8.91320 991 ft 83 kts 276°
2026-04-22 20:07 53.04958 8.90368 1003 ft 81 kts 270°
2026-04-22 20:07 53.04906 8.89441 950 ft 83 kts 268°
2026-04-22 20:08 53.04877 8.88530 997 ft 72 kts 273°
2026-04-22 20:08 53.04866 8.87663 987 ft 75 kts 271°
2026-04-22 20:08 53.04845 8.86787 870 ft 80 kts 270°
2026-04-22 20:08 53.04816 8.85820 802 ft 89 kts 271°
2026-04-22 20:09 53.04802 8.84760 696 ft 91 kts 274°
2026-04-22 20:09 53.04788 8.83657 534 ft 103 kts 272°
2026-04-22 20:09 53.04759 8.82404 351 ft 110 kts 272°
2026-04-22 20:09 53.04756 8.81127 188 ft 113 kts 270°
2026-04-22 20:10 53.04720 8.79782 47 ft 117 kts 270°
2026-04-22 20:10 53.04679 8.78468 30 ft 111 kts 271°
2026-04-22 20:10 53.04670 8.77363 228 ft 82 kts 278°
2026-04-22 20:10 53.04626 8.76476 201 ft 80 kts 264°
2026-04-22 20:11 53.04344 8.75839 250 ft 74 kts 198°
2026-04-22 20:11 53.03835 8.75933 355 ft 81 kts 143°
2026-04-22 20:11 53.03516 8.76707 406 ft 86 kts 108°
2026-04-22 20:11 53.03416 8.77723 524 ft 90 kts 87°
2026-04-22 20:12 53.03467 8.78817 529 ft 98 kts 75°
2026-04-22 20:12 53.03637 8.79897 556 ft 93 kts 64°
2026-04-22 20:12 53.03738 8.80588 541 ft 90 kts 75°
2026-04-22 20:12 53.04164 8.81432 408 ft 79 kts
2026-04-22 20:13 53.04447 8.82259 399 ft 96 kts 90°
2026-04-22 20:13 53.04702 8.82787 467 ft 73 kts 312°
2026-04-22 20:13 53.04743 8.81918 330 ft 79 kts 273°
2026-04-22 20:13 53.04731 8.80927 119 ft 95 kts 272°
2026-04-22 20:14 53.04710 8.79797 30 ft 97 kts 275°
2026-04-22 20:14 53.04686 8.78715 23 ft 90 kts 273°
2026-04-22 20:14 53.04660 8.77849 253 ft 50 kts 276°
2026-04-22 20:14 53.04655 8.77205 264 ft 61 kts 279°
2026-04-22 20:15 53.04456 8.76668 365 ft 70 kts 196°
2026-04-22 20:15 53.04028 8.76620 693 ft 62 kts 172°
2026-04-22 20:15 53.03767 8.77219 845 ft 73 kts 97°
2026-04-22 20:15 53.03723 8.78043 880 ft 69 kts 86°
2026-04-22 20:16 53.03736 8.78859 849 ft 71 kts 81°
2026-04-22 20:16 53.03780 8.79609 911 ft 66 kts 76°
2026-04-22 20:16 53.03841 8.80373 867 ft 68 kts 72°
2026-04-22 20:16 53.03927 8.81127 834 ft 67 kts 71°
2026-04-22 20:17 53.04083 8.81847 739 ft 64 kts 30°
2026-04-22 20:17 53.04495 8.81871 634 ft 58 kts 330°
2026-04-22 20:17 53.04732 8.81274 314 ft 72 kts 282°
2026-04-22 20:17 53.04727 8.80518 25 ft 55 kts 273°
2026-04-22 20:18 53.04710 8.79955 18 ft 42 kts 277°
2026-04-22 20:18 53.04705 8.79532 16 ft 31 kts 268°
2026-04-22 20:18 53.04698 8.79237 16 ft 21 kts 266°
2026-04-22 20:18 53.04692 8.78951 17 ft 31 kts 265°
2026-04-22 20:19 53.04727 8.78695 15 ft 18 kts 322°
2026-04-22 20:19 53.04798 8.78666 15 ft 3 kts 357°
2026-04-22 20:19 53.04802 8.78666 15 ft 0 kts 356°
2026-04-22 20:20 53.04823 8.78658 15 ft 14 kts 339°
2026-04-22 20:20 53.04926 8.78504 15 ft 16 kts 317°
2026-04-22 20:20 53.04947 8.78395 15 ft 0 kts 112°
2026-04-22 20:20 53.04932 8.78375 15 ft 5 kts 252°
2026-04-22 20:21 53.04930 8.78338 15 ft 4 kts 276°
2026-04-22 20:21 53.04937 8.78297 15 ft 4 kts 297°
2026-04-22 20:21 53.04955 8.78267 15 ft 4 kts 332°
2026-04-22 20:21 53.04978 8.78250 15 ft 4 kts 338°
2026-04-22 20:22 53.05001 8.78229 15 ft 4 kts 324°
2026-04-22 20:22 53.05021 8.78202 15 ft 4 kts 318°
2026-04-22 20:22 53.05034 8.78165 15 ft 4 kts 295°
2026-04-22 20:22 53.05036 8.78146 15 ft 0 kts 252°
2026-04-22 20:23 53.05034 8.78136 15 ft 2 kts 252°
2026-04-22 20:23 53.05033 8.78129 15 ft 0 kts 252°